Location: Antioch
(38.0049°N, 121.8058°W)
Time: 03:01:14
(UTC+00:00)

Meteor 1-11 - Pass Details

Date: 11 February 2026
Orbit: 828 x 896 km, 81.2° (Epoch: 13 March)

Event Time Altitude Azimuth Distance (km) Brightness Sun altitude
Rises 13:20:27 0° 349° (N) 3,506 7.3 -20.4°
Reaches altitude 10° 13:22:55 10° 349° (N) 2,568 6.6 -19.9°
Maximum altitude 13:28:47 81° 263° (W) 910 4.2 -18.8°
Drops below altitude 10° 13:34:37 10° 177° (S) 2,555 6.8 -17.6°
Sets 13:37:03 0° 176° (S) 3,488 7.5 -17.2°
